Time,TemperatureF,DewpointF,PressureIn,WindDirection,WindDirectionDegrees,WindSpeedMPH,WindSpeedGustMPH,Humidity,HourlyPrecipIn,Conditions,Clouds,dailyrainin,SoftwareType,DateUTC
2013-08-20 00:03:00,65.0,60.0,30.02,NE,36,0.0,-999.0,84,-99.99,,,0.00,weatherlink.com 1.10,2013-08-20 04:03:00,
2013-08-20 00:18:00,66.0,60.0,30.02,NE,36,0.0,-999.0,82,-99.99,,,0.00,weatherlink.com 1.10,2013-08-20 04:18:00,
2013-08-20 00:33:00,66.7,60.0,30.02,NE,36,0.0,-999.0,80,-99.99,,,0.00,weatherlink.com 1.10,2013-08-20 04:33:00,
2013-08-20 00:49:00,66.5,60.0,30.02,NE,36,0.0,-999.0,80,-99.99,,,0.00,weatherlink.com 1.10,2013-08-20 04:49:00,
2013-08-20 01:03:00,65.7,60.0,30.02,NE,36,0.0,-999.0,81,-99.99,,,0.00,weatherlink.com 1.10,2013-08-20 05:03:00,
2013-08-20 01:18:00,64.9,60.0,30.02,NE,36,0.0,-999.0,83,-99.99,,,0.00,weatherlink.com 1.10,2013-08-20 05:18:00,
2013-08-20 01:33:00,64.2,59.0,30.02,NE,36,0.0,-999.0,84,-99.99,,,0.00,weatherlink.com 1.10,2013-08-20 05:33:00,
2013-08-20 01:49:00,63.7,59.0,30.02,NE,36,0.0,-999.0,85,-99.99,,,0.00,weatherlink.com 1.10,2013-08-20 05:49:00,
2013-08-20 02:03:00,63.3,59.0,30.02,NE,36,0.0,-999.0,86,-99.99,,,0.00,weatherlink.com 1.10,2013-08-20 06:03:00,
2013-08-20 02:18:00,62.8,59.0,30.02,NE,36,0.0,-999.0,87,-99.99,,,0.00,weatherlink.com 1.10,2013-08-20 06:18:00,
2013-08-20 02:33:00,61.9,58.0,30.02,NE,36,0.0,-999.0,88,-99.99,,,0.00,weatherlink.com 1.10,2013-08-20 06:33:00,
2013-08-20 02:48:00,61.4,58.0,30.03,NE,36,0.0,-999.0,89,-99.99,,,0.00,weatherlink.com 1.10,2013-08-20 06:48:00,
2013-08-20 03:03:00,61.1,58.0,30.03,NE,36,0.0,-999.0,90,-99.99,,,0.00,weatherlink.com 1.10,2013-08-20 07:03:00,
2013-08-20 03:18:00,60.9,58.0,30.03,NE,36,0.0,-999.0,91,-99.99,,,0.00,weatherlink.com 1.10,2013-08-20 07:18:00,
2013-08-20 03:33:00,60.7,58.0,30.03,NE,36,0.0,-999.0,91,-99.99,,,0.00,weatherlink.com 1.10,2013-08-20 07:33:00,
2013-08-20 03:48:00,60.6,58.0,30.03,NE,36,0.0,-999.0,91,-99.99,,,0.00,weatherlink.com 1.10,2013-08-20 07:48:00,
2013-08-20 04:03:00,60.2,58.0,30.03,NE,36,0.0,-999.0,91,-99.99,,,0.00,weatherlink.com 1.10,2013-08-20 08:03:00,
2013-08-20 04:18:00,60.1,58.0,30.03,NE,36,0.0,-999.0,92,-99.99,,,0.00,weatherlink.com 1.10,2013-08-20 08:18:00,
2013-08-20 04:33:00,59.8,58.0,30.03,NE,36,0.0,-999.0,92,-99.99,,,0.00,weatherlink.com 1.10,2013-08-20 08:33:00,
2013-08-20 04:49:00,59.6,57.0,30.04,NE,36,0.0,-999.0,92,-99.99,,,0.00,weatherlink.com 1.10,2013-08-20 08:49:00,
2013-08-20 05:06:00,59.8,58.0,30.04,NE,36,0.0,-999.0,93,-99.99,,,0.00,weatherlink.com 1.10,2013-08-20 09:06:00,
2013-08-20 05:19:00,60.3,58.0,30.05,NE,36,0.0,-999.0,93,-99.99,,,0.00,weatherlink.com 1.10,2013-08-20 09:19:00,
2013-08-20 05:34:00,59.7,58.0,30.05,NE,36,0.0,-999.0,93,-99.99,,,0.00,weatherlink.com 1.10,2013-08-20 09:34:00,
2013-08-20 05:49:00,59.3,57.0,30.05,NE,36,0.0,-999.0,93,-99.99,,,0.00,weatherlink.com 1.10,2013-08-20 09:49:00,
2013-08-20 06:04:00,59.3,58.0,30.06,NE,36,0.0,-999.0,94,-99.99,,,0.00,weatherlink.com 1.10,2013-08-20 10:04:00,
2013-08-20 06:19:00,59.1,57.0,30.06,NE,36,0.0,-999.0,94,-99.99,,,0.00,weatherlink.com 1.10,2013-08-20 10:19:00,
2013-08-20 06:34:00,59.0,57.0,30.06,NE,36,0.0,-999.0,94,-99.99,,,0.00,weatherlink.com 1.10,2013-08-20 10:34:00,
2013-08-20 06:49:00,59.1,57.0,30.07,NE,36,0.0,-999.0,94,-99.99,,,0.00,weatherlink.com 1.10,2013-08-20 10:49:00,
2013-08-20 07:04:00,59.3,58.0,30.07,NE,36,0.0,-999.0,94,-99.99,,,0.00,weatherlink.com 1.10,2013-08-20 11:04:00,
2013-08-20 07:19:00,59.9,59.0,30.08,NE,36,0.0,-999.0,95,-99.99,,,0.00,weatherlink.com 1.10,2013-08-20 11:19:00,
2013-08-20 07:34:00,61.2,60.0,30.08,NE,36,0.0,-999.0,95,-99.99,,,0.00,weatherlink.com 1.10,2013-08-20 11:34:00,
2013-08-20 07:49:00,61.8,60.0,30.09,NE,36,0.0,-999.0,95,-99.99,,,0.00,weatherlink.com 1.10,2013-08-20 11:49:00,
2013-08-20 08:04:00,62.2,61.0,30.09,North,9,0.0,-999.0,95,-99.99,,,0.00,weatherlink.com 1.10,2013-08-20 12:04:00,
2013-08-20 08:19:00,62.8,61.0,30.09,North,10,0.0,-999.0,95,-99.99,,,0.00,weatherlink.com 1.10,2013-08-20 12:19:00,
2013-08-20 08:34:00,63.6,62.0,30.09,North,10,0.0,-999.0,95,-99.99,,,0.00,weatherlink.com 1.10,2013-08-20 12:34:00,
2013-08-20 08:49:00,64.9,63.0,30.10,North,10,0.0,-999.0,94,-99.99,,,0.00,weatherlink.com 1.10,2013-08-20 12:49:00,
2013-08-20 09:05:00,66.5,63.0,30.10,North,10,0.0,-999.0,88,-99.99,,,0.00,weatherlink.com 1.10,2013-08-20 13:05:00,
2013-08-20 09:20:00,68.0,62.0,30.10,North,355,0.0,-999.0,81,-99.99,,,0.00,weatherlink.com 1.10,2013-08-20 13:20:00,
2013-08-20 09:35:00,70.7,63.0,30.10,NE,54,0.0,-999.0,76,-99.99,,,0.00,weatherlink.com 1.10,2013-08-20 13:35:00,
2013-08-20 09:49:00,72.8,64.0,30.10,NE,54,0.0,-999.0,73,-99.99,,,0.00,weatherlink.com 1.10,2013-08-20 13:49:00,
2013-08-20 10:04:00,71.9,64.0,30.11,NNE,32,2.0,-999.0,75,-99.99,,,0.00,weatherlink.com 1.10,2013-08-20 14:04:00,
2013-08-20 10:19:00,72.4,63.0,30.10,NNE,33,0.0,-999.0,71,-99.99,,,0.00,weatherlink.com 1.10,2013-08-20 14:19:00,
2013-08-20 10:35:00,72.8,63.0,30.10,North,360,0.0,-999.0,71,-99.99,,,0.00,weatherlink.com 1.10,2013-08-20 14:35:00,
2013-08-20 10:50:00,76.2,65.0,30.10,SE,143,0.0,-999.0,68,-99.99,,,0.00,weatherlink.com 1.10,2013-08-20 14:50:00,
2013-08-20 11:05:00,75.3,65.0,30.09,North,355,0.0,-999.0,71,-99.99,,,0.00,weatherlink.com 1.10,2013-08-20 15:05:00,
2013-08-20 11:20:00,74.9,65.0,30.09,NE,34,0.0,-999.0,71,-99.99,,,0.00,weatherlink.com 1.10,2013-08-20 15:20:00,
2013-08-20 11:35:00,77.7,67.0,30.09,ENE,70,0.0,-999.0,69,-99.99,,,0.00,weatherlink.com 1.10,2013-08-20 15:35:00,
2013-08-20 11:50:00,77.2,64.0,30.09,NNE,20,0.0,-999.0,63,-99.99,,,0.00,weatherlink.com 1.10,2013-08-20 15:50:00,
2013-08-20 12:05:00,78.6,65.0,30.09,NE,56,2.0,-999.0,64,-99.99,,,0.00,weatherlink.com 1.10,2013-08-20 16:05:00,
2013-08-20 12:20:00,80.9,66.0,30.08,NE,51,0.0,-999.0,60,-99.99,,,0.00,weatherlink.com 1.10,2013-08-20 16:20:00,
2013-08-20 12:35:00,81.6,66.0,30.08,ENE,58,0.0,-999.0,60,-99.99,,,0.00,weatherlink.com 1.10,2013-08-20 16:35:00,
2013-08-20 12:50:00,82.5,66.0,30.08,South,177,0.0,-999.0,58,-99.99,,,0.00,weatherlink.com 1.10,2013-08-20 16:50:00,
2013-08-20 13:05:00,80.3,65.0,30.08,SSE,149,0.0,-999.0,60,-99.99,,,0.00,weatherlink.com 1.10,2013-08-20 17:05:00,
2013-08-20 13:20:00,83.7,66.0,30.07,SSE,165,2.0,-999.0,55,-99.99,,,0.00,weatherlink.com 1.10,2013-08-20 17:20:00,
2013-08-20 13:35:00,82.1,64.0,30.07,SE,144,0.0,-999.0,55,-99.99,,,0.00,weatherlink.com 1.10,2013-08-20 17:35:00,
2013-08-20 13:50:00,81.7,62.0,30.07,SSE,156,0.0,-999.0,52,-99.99,,,0.00,weatherlink.com 1.10,2013-08-20 17:50:00,
2013-08-20 14:05:00,80.9,62.0,30.07,SE,139,0.0,-999.0,52,-99.99,,,0.00,weatherlink.com 1.10,2013-08-20 18:05:00,
2013-08-20 14:20:00,83.0,62.0,30.06,East,94,9.0,-999.0,49,-99.99,,,0.00,weatherlink.com 1.10,2013-08-20 18:20:00,
2013-08-20 14:35:00,83.9,63.0,30.06,ENE,61,0.0,-999.0,49,-99.99,,,0.00,weatherlink.com 1.10,2013-08-20 18:35:00,
2013-08-20 14:51:00,84.7,62.0,30.06,SSE,168,0.0,-999.0,46,-99.99,,,0.00,weatherlink.com 1.10,2013-08-20 18:51:00,
2013-08-20 15:06:00,82.6,61.0,30.06,NE,40,4.0,-999.0,49,-99.99,,,0.00,weatherlink.com 1.10,2013-08-20 19:06:00,
2013-08-20 15:20:00,84.1,63.0,30.06,SE,145,4.0,-999.0,50,-99.99,,,0.00,weatherlink.com 1.10,2013-08-20 19:20:00,
2013-08-20 15:35:00,83.6,62.0,30.06,SSE,162,0.0,-999.0,49,-99.99,,,0.00,weatherlink.com 1.10,2013-08-20 19:35:00,
2013-08-20 15:50:00,84.2,64.0,30.06,NNW,342,6.0,-999.0,50,-99.99,,,0.00,weatherlink.com 1.10,2013-08-20 19:50:00,
2013-08-20 16:05:00,82.3,63.0,30.06,ESE,115,1.0,-999.0,52,-99.99,,,0.00,weatherlink.com 1.10,2013-08-20 20:05:00,
2013-08-20 16:20:00,82.7,63.0,30.05,SSE,149,0.0,-999.0,51,-99.99,,,0.00,weatherlink.com 1.10,2013-08-20 20:20:00,
2013-08-20 16:35:00,83.5,63.0,30.05,NE,38,0.0,-999.0,50,-99.99,,,0.00,weatherlink.com 1.10,2013-08-20 20:35:00,
2013-08-20 16:50:00,82.7,63.0,30.05,SSE,167,0.0,-999.0,51,-99.99,,,0.00,weatherlink.com 1.10,2013-08-20 20:50:00,
2013-08-20 17:06:00,82.7,63.0,30.05,SE,138,0.0,-999.0,51,-99.99,,,0.00,weatherlink.com 1.10,2013-08-20 21:06:00,
2013-08-20 17:21:00,83.0,61.0,30.05,SSE,167,0.0,-999.0,48,-99.99,,,0.00,weatherlink.com 1.10,2013-08-20 21:21:00,
2013-08-20 17:36:00,83.5,63.0,30.06,NE,50,3.0,-999.0,51,-99.99,,,0.00,weatherlink.com 1.10,2013-08-20 21:36:00,
2013-08-20 17:51:00,82.2,63.0,30.06,NE,51,0.0,-999.0,52,-99.99,,,0.00,weatherlink.com 1.10,2013-08-20 21:51:00,
2013-08-20 18:06:00,81.6,63.0,30.06,NNE,28,0.0,-999.0,53,-99.99,,,0.00,weatherlink.com 1.10,2013-08-20 22:06:00,
2013-08-20 18:21:00,81.2,63.0,30.06,NNE,30,0.0,-999.0,55,-99.99,,,0.00,weatherlink.com 1.10,2013-08-20 22:21:00,
2013-08-20 18:36:00,81.3,64.0,30.05,North,9,2.0,-999.0,56,-99.99,,,0.00,weatherlink.com 1.10,2013-08-20 22:36:00,
2013-08-20 18:51:00,80.7,64.0,30.05,NE,49,0.0,-999.0,57,-99.99,,,0.00,weatherlink.com 1.10,2013-08-20 22:51:00,
2013-08-20 19:06:00,79.5,64.0,30.06,NE,52,1.0,-999.0,59,-99.99,,,0.00,weatherlink.com 1.10,2013-08-20 23:06:00,
2013-08-20 19:21:00,78.4,63.0,30.06,ENE,63,0.0,-999.0,60,-99.99,,,0.00,weatherlink.com 1.10,2013-08-20 23:21:00,
2013-08-20 19:37:00,77.6,63.0,30.06,NNE,26,3.0,-999.0,61,-99.99,,,0.00,weatherlink.com 1.10,2013-08-20 23:37:00,
2013-08-20 19:51:00,76.8,64.0,30.06,NNE,26,0.0,-999.0,64,-99.99,,,0.00,weatherlink.com 1.10,2013-08-20 23:51:00,
2013-08-20 20:06:00,75.9,64.0,30.06,NNE,26,0.0,-999.0,66,-99.99,,,0.00,weatherlink.com 1.10,2013-08-21 00:06:00,
2013-08-20 20:36:00,73.8,63.0,30.07,NNE,26,0.0,-999.0,69,-99.99,,,0.00,weatherlink.com 1.10,2013-08-21 00:36:00,
2013-08-20 20:51:00,72.4,63.0,30.07,NNE,26,0.0,-999.0,72,-99.99,,,0.00,weatherlink.com 1.10,2013-08-21 00:51:00,
2013-08-20 21:06:00,72.2,63.0,30.08,NNE,26,0.0,-999.0,72,-99.99,,,0.00,weatherlink.com 1.10,2013-08-21 01:06:00,
2013-08-20 21:21:00,72.5,63.0,30.08,NNE,26,0.0,-999.0,72,-99.99,,,0.00,weatherlink.com 1.10,2013-08-21 01:21:00,
2013-08-20 21:36:00,72.4,63.0,30.09,NNE,26,0.0,-999.0,71,-99.99,,,0.00,weatherlink.com 1.10,2013-08-21 01:36:00,
2013-08-20 21:51:00,71.6,63.0,30.09,NNE,26,0.0,-999.0,73,-99.99,,,0.00,weatherlink.com 1.10,2013-08-21 01:51:00,
2013-08-20 22:06:00,71.9,62.0,30.09,NNE,26,0.0,-999.0,72,-99.99,,,0.00,weatherlink.com 1.10,2013-08-21 02:06:00,
2013-08-20 22:21:00,72.0,63.0,30.09,NNE,26,0.0,-999.0,72,-99.99,,,0.00,weatherlink.com 1.10,2013-08-21 02:21:00,
2013-08-20 22:36:00,70.8,62.0,30.09,NNE,26,0.0,-999.0,74,-99.99,,,0.00,weatherlink.com 1.10,2013-08-21 02:36:00,
2013-08-20 22:51:00,70.2,63.0,30.09,NNE,26,0.0,-999.0,77,-99.99,,,0.00,weatherlink.com 1.10,2013-08-21 02:51:00,
2013-08-20 23:06:00,69.5,63.0,30.10,NNE,26,0.0,-999.0,79,-99.99,,,0.00,weatherlink.com 1.10,2013-08-21 03:06:00,
2013-08-20 23:21:00,68.6,62.0,30.10,NNE,26,0.0,-999.0,80,-99.99,,,0.00,weatherlink.com 1.10,2013-08-21 03:21:00,
2013-08-20 23:36:00,67.6,62.0,30.10,NNE,26,0.0,-999.0,82,-99.99,,,0.00,weatherlink.com 1.10,2013-08-21 03:36:00,
2013-08-20 23:51:00,67.4,62.0,30.11,NNE,26,0.0,-999.0,83,-99.99,,,0.00,weatherlink.com 1.10,2013-08-21 03:51:00,